Litchfield, IL

8:44 PM CST on February 27, 2017 (GMT -0600)
Litchfield

Weather History for K3LF - March, 2013

Change the Weather History Date:

Monday, March 4, 2013

  Actual Average (KALN) Record (KALN)
Temperature  
Mean Temperature 36 °F -  
Max Temperature 42 °F 45 °F 66 °F (2011)
Min Temperature 30 °F 29 °F 6 °F (2002)
Degree Days  
Heating Degree Days 29    
Moisture  
Dew Point 28 °F    
Average Humidity 71    
Maximum Humidity 82    
Minimum Humidity 63    
Precipitation  
Precipitation 0.00 in - - ()
Sea Level Pressure  
Sea Level Pressure 29.91 in    
Wind  
Wind Speed 12 mph (ESE)    
Max Wind Speed 22 mph    
Max Gust Speed 29 mph    
Visibility 10 miles    
Events Snow    
Averages and records for this station are not official NWS values.
T = Trace of Precipitation, MM = Missing Value Source: NWS Daily Summary

Daily Weather History Graph

Daily Weather History Graph

Search for Another Location

Airport or City:

Trip Planner

Search our weather history database for the weather conditions in past years. The results will help you decide how hot, cold, wet, or windy it might be!

Date:

Astronomy

Mar. 04, 2013 Rise Set
Actual Time 6:26 AM CST 5:54 PM CST
Civil Twilight 5:59 AM CST 6:21 PM CST
Nautical Twilight 5:28 AM CST 6:52 PM CST
Astronomical Twilight 4:57 AM CST 7:23 PM CST
Moon 12:34 AM CST (3/4) 10:38 AM CST (3/4)
Length of Visible Light 12h 21m
Length of Day
11h 28m
Waning Gibbous, 52% of the Moon is Illuminated
Mar 4
Waning Gibbous
Mar 4
Last Quarter
Mar 11
New
Mar 19
First Quarter
Mar 27
Full

Hourly Weather History & Observations

Time (CST) Temp. Windchill Dew Point Humidity Pressure Visibility Wind Dir Wind Speed Gust Speed Precip Events Conditions
12:15 AM 32.0 °F 24.8 °F 20.5 °F 63% 30.06 in 10.0 mi SE 8.1 mph - N/A   Clear
12:35 AM 32.0 °F 24.8 °F 21.4 °F 65% 30.06 in 10.0 mi SE 8.1 mph - N/A   Clear
12:55 AM 32.0 °F 23.6 °F 21.0 °F 64% 30.06 in 10.0 mi SE 10.4 mph - N/A   Mostly Cloudy
1:15 AM 32.0 °F 24.2 °F 21.4 °F 65% 30.06 in 10.0 mi ESE 9.2 mph - N/A   Overcast
1:35 AM 32.0 °F 24.2 °F 21.0 °F 64% 30.05 in 10.0 mi ESE 9.2 mph - N/A   Mostly Cloudy
1:55 AM 32.0 °F 23.6 °F 21.0 °F 64% 30.05 in 10.0 mi ESE 10.4 mph - N/A   Overcast
2:15 AM 32.0 °F 24.2 °F 21.2 °F 64% 30.04 in 10.0 mi ESE 9.2 mph - N/A   Mostly Cloudy
2:35 AM 32.0 °F 24.2 °F 21.2 °F 64% 30.03 in 10.0 mi ESE 9.2 mph - N/A   Mostly Cloudy
2:55 AM 32.0 °F 23.6 °F 21.7 °F 66% 30.03 in 10.0 mi ESE 10.4 mph - N/A   Scattered Clouds
3:15 AM 32.0 °F 23.0 °F 21.9 °F 66% 30.02 in 10.0 mi ESE 11.5 mph 16.1 mph N/A   Mostly Cloudy
3:35 AM 32.0 °F 23.6 °F 23.2 °F 70% 30.02 in 5.0 mi ESE 10.4 mph - N/A Snow Light Snow
3:55 AM 31.1 °F 21.9 °F 25.3 °F 79% 30.02 in 4.0 mi SE 11.5 mph - N/A Snow Light Snow
4:15 AM 30.9 °F 21.7 °F 25.5 °F 80% 30.01 in 10.0 mi ESE 11.5 mph - N/A Snow Light Snow
4:35 AM 30.7 °F 20.9 °F 25.7 °F 82% 30.01 in 10.0 mi ESE 12.7 mph - N/A Snow Light Snow
4:55 AM 30.9 °F 20.7 °F 25.7 °F 81% 30.00 in 10.0 mi ESE 13.8 mph - N/A   Overcast
5:15 AM 31.1 °F 20.5 °F 25.7 °F 80% 29.99 in 10.0 mi ESE 15.0 mph - N/A   Overcast
5:35 AM 31.5 °F 21.4 °F 26.2 °F 81% 29.99 in 10.0 mi ESE 13.8 mph - N/A   Overcast
6:15 AM 31.5 °F 21.4 °F 26.6 °F 82% 29.98 in 10.0 mi ESE 13.8 mph 20.7 mph N/A   Mostly Cloudy
6:35 AM 31.6 °F 22.1 °F 26.6 °F 82% 29.98 in 10.0 mi ESE 12.7 mph - N/A   Scattered Clouds
6:55 AM 31.6 °F 21.6 °F 26.6 °F 82% 29.98 in 10.0 mi ESE 13.8 mph - N/A   Scattered Clouds
7:15 AM 32.0 °F 22.1 °F 26.6 °F 80% 29.97 in 10.0 mi SE 13.8 mph 18.4 mph N/A   Scattered Clouds
7:35 AM 32.0 °F 22.1 °F 26.6 °F 80% 29.97 in 10.0 mi SE 13.8 mph - N/A   Clear
7:55 AM 32.0 °F 20.5 °F 26.6 °F 80% 29.96 in 10.0 mi ESE 18.4 mph 23.0 mph N/A   Mostly Cloudy
8:15 AM 32.4 °F 20.6 °F 26.4 °F 79% 29.95 in 10.0 mi ESE 19.6 mph 24.2 mph N/A   Mostly Cloudy
8:35 AM 33.1 °F 21.9 °F 25.9 °F 75% 29.95 in 10.0 mi ESE 18.4 mph - N/A   Mostly Cloudy
8:55 AM 34.9 °F 23.3 °F 25.9 °F 70% 29.93 in 10.0 mi SE 21.9 mph 27.6 mph N/A   Scattered Clouds
9:15 AM 34.3 °F 23.2 °F 26.1 °F 72% 29.93 in 10.0 mi SE 19.6 mph 25.3 mph N/A   Scattered Clouds
9:35 AM 34.3 °F 23.9 °F 25.9 °F 71% 29.92 in 10.0 mi ESE 17.3 mph 23.0 mph N/A   Overcast
9:55 AM 35.2 °F 25.0 °F 26.1 °F 69% 29.92 in 10.0 mi ESE 17.3 mph 20.7 mph N/A   Overcast
10:15 AM 36.7 °F 27.2 °F 26.8 °F 67% 29.91 in 10.0 mi SE 16.1 mph 21.9 mph N/A   Mostly Cloudy
10:35 AM 37.0 °F 26.2 °F 26.8 °F 66% 29.90 in 10.0 mi SE 21.9 mph 25.3 mph N/A   Scattered Clouds
10:55 AM 37.8 °F 28.0 °F 27.7 °F 67% 29.88 in 10.0 mi ESE 18.4 mph 24.2 mph N/A   Clear
11:15 AM 38.3 °F 28.1 °F 28.0 °F 67% 29.86 in 10.0 mi ESE 20.7 mph 28.8 mph N/A   Clear
11:35 AM 39.2 °F 29.6 °F 29.1 °F 67% 29.86 in 10.0 mi ESE 19.6 mph 28.8 mph N/A   Clear
11:55 AM 40.3 °F 33.0 °F 29.7 °F 66% 29.86 in 10.0 mi ESE 12.7 mph 19.6 mph N/A   Clear
12:15 PM 41.0 °F 32.5 °F 30.0 °F 65% 29.85 in 10.0 mi ESE 17.3 mph 20.7 mph N/A   Clear
12:55 PM 42.4 °F 35.7 °F 30.7 °F 63% 29.83 in 10.0 mi ESE 12.7 mph 20.7 mph N/A   Clear
1:15 PM 42.6 °F 35.9 °F 30.9 °F 63% 29.83 in 10.0 mi ESE 12.7 mph - N/A   Mostly Cloudy
1:35 PM 42.1 °F 35.7 °F 31.1 °F 65% 29.83 in 10.0 mi East 11.5 mph 17.3 mph N/A   Overcast
1:55 PM 42.3 °F 35.1 °F 31.3 °F 65% 29.83 in 10.0 mi East 13.8 mph - N/A   Overcast
2:15 PM 41.0 °F 33.9 °F 31.6 °F 69% 29.82 in 10.0 mi East 12.7 mph - N/A   Overcast
2:35 PM 40.8 °F 32.3 °F 31.1 °F 68% 29.81 in 10.0 mi ESE 17.3 mph 21.9 mph N/A   Scattered Clouds
2:55 PM 40.6 °F 32.3 °F 31.1 °F 69% 29.80 in 10.0 mi ESE 16.1 mph - N/A   Clear
3:35 PM 41.5 °F 33.8 °F 31.8 °F 68% 29.81 in 10.0 mi East 15.0 mph - N/A   Mostly Cloudy
3:55 PM 41.4 °F 34.3 °F 32.0 °F 69% 29.81 in 10.0 mi East 12.7 mph - N/A   Overcast
4:15 PM 41.5 °F 34.2 °F 32.0 °F 69% 29.81 in 10.0 mi East 13.8 mph 17.3 mph N/A   Overcast
4:55 PM 41.0 °F 34.3 °F 32.0 °F 70% 29.81 in 10.0 mi East 11.5 mph - N/A   Overcast
5:15 PM 41.0 °F 33.5 °F 32.0 °F 70% 29.81 in 10.0 mi East 13.8 mph - N/A   Overcast
5:35 PM 40.6 °F 33.4 °F 32.0 °F 71% 29.82 in 10.0 mi East 12.7 mph - N/A   Overcast
5:55 PM 40.5 °F 34.1 °F 32.0 °F 72% 29.81 in 10.0 mi East 10.4 mph - N/A   Overcast
6:15 PM 40.3 °F 33.9 °F 32.0 °F 72% 29.82 in 10.0 mi East 10.4 mph - N/A   Overcast
6:55 PM 40.1 °F 33.2 °F 32.0 °F 73% 29.83 in 10.0 mi East 11.5 mph - N/A   Overcast
7:15 PM 39.2 °F 32.0 °F 32.0 °F 75% 29.83 in 10.0 mi East 11.5 mph - N/A   Overcast
7:35 PM 39.2 °F 32.0 °F 32.0 °F 75% 29.84 in 10.0 mi East 11.5 mph - N/A   Overcast
7:55 PM 39.2 °F 32.0 °F 31.6 °F 74% 29.85 in 10.0 mi East 11.5 mph - N/A   Overcast
8:35 PM 38.7 °F 31.4 °F 31.1 °F 74% 29.85 in 10.0 mi East 11.5 mph - N/A   Overcast
8:55 PM 38.7 °F 31.4 °F 30.9 °F 74% 29.85 in 10.0 mi East 11.5 mph - N/A   Overcast
9:15 PM 38.7 °F 30.9 °F 30.6 °F 73% 29.85 in 10.0 mi East 12.7 mph - N/A   Overcast
9:35 PM 38.5 °F 31.6 °F 30.4 °F 73% 29.85 in 10.0 mi East 10.4 mph - N/A   Overcast
9:55 PM 38.5 °F 31.6 °F 30.2 °F 72% 29.84 in 10.0 mi East 10.4 mph - N/A   Overcast
10:15 PM 38.5 °F 31.1 °F 30.0 °F 72% 29.84 in 10.0 mi East 11.5 mph - N/A   Overcast
10:35 PM 38.5 °F 31.6 °F 29.8 °F 71% 29.83 in 10.0 mi East 10.4 mph - N/A   Overcast
10:55 PM 38.5 °F 32.1 °F 30.0 °F 72% 29.83 in 10.0 mi ENE 9.2 mph - N/A   Overcast
11:15 PM 38.3 °F 33.2 °F 29.8 °F 72% 29.84 in 10.0 mi NE 6.9 mph - N/A   Overcast
11:35 PM 38.3 °F 34.8 °F 29.8 °F 72% 29.84 in 10.0 mi NE 4.6 mph - N/A   Overcast
11:55 PM 37.9 °F 34.4 °F 29.5 °F 72% 29.83 in 10.0 mi NE 4.6 mph - N/A   Overcast